Simultaneous Nadir Overpasses (SNOs) Predictions

Prediction of SNOs between GOES-17 and TERRA Satellite Orbit:

Table of predicted SNOs for the next 14.0 days since TLE Epoch: 8/6/2022
Index Date Time (GOES-17) GOES-17 Lat,Lon TERRA Lat,Lon Distance(km) Time Diff (sec)
1 08/06/2022 07:33:22 0.03,-137.31 -0.42,-139.36 232.98 80
2 08/08/2022 07:23:49 0.02,-137.30 0.24,-136.42 101.34 80
3 08/08/2022 19:42:24 -0.03,-137.30 0.85,-141.58 486.01 80
4 08/10/2022 07:11:35 0.02,-137.28 0.84,-133.46 434.65 80
5 08/10/2022 19:30:10 -0.03,-137.28 0.25,-138.62 152.79 80
6 08/12/2022 19:20:36 -0.03,-137.26 -0.36,-135.67 180.13 80
7 08/13/2022 07:39:20 0.04,-137.25 -0.73,-140.87 411.22 80
8 08/15/2022 07:27:06 0.04,-137.23 -0.11,-137.92 78.23 80
9 08/17/2022 07:17:32 0.04,-137.20 0.51,-134.96 254.53 80
10 08/17/2022 19:36:07 -0.04,-137.19 0.57,-140.13 333.17 80
11 08/19/2022 19:26:33 -0.03,-137.16 -0.05,-137.18 2.55 80
